This is the latest recevied weather packets stored in our database for station/object N2PPN. If no packets are shown the sender has not sent any weather packets the latest 10 day(s).
| Time | Temp. | Humidity | Pressure | Rain* | Wind** | Luminosity | Snow |
|---|---|---|---|---|---|---|---|
| 1777135658 | 6.67° C | 91% | 1021.4 hPa | 1.78 mm | - | 113 W/m² | - |
| 1777135355 | 6.67° C | 87% | 1021.4 hPa | 3.56 mm | - | 116 W/m² | - |
| 1777135052 | 6.67° C | 87% | 1021.4 hPa | 1.78 mm | - | 112 W/m² | - |
| 1777134749 | 7.22° C | 86% | 1021.7 hPa | 0 mm | - | 112 W/m² | - |
| 1777134445 | 7.22° C | 84% | 1021.5 hPa | 1.27 mm | - | 98 W/m² | - |
| 1777134141 | 7.22° C | 83% | 1021.7 hPa | 1.27 mm | - | 103 W/m² | - |
| 1777133839 | 7.22° C | 81% | 1021.7 hPa | 0 mm | - | 108 W/m² | - |
| 1777133534 | 7.22° C | 80% | 1021.4 hPa | 0 mm | - | 120 W/m² | - |
| 1777133234 | 7.78° C | 79% | 1021.5 hPa | 0 mm | - | 115 W/m² | - |
| 1777132928 | 7.78° C | 79% | 1021.2 hPa | 0 mm | - | 108 W/m² | - |
| 1777132624 | 7.78° C | 78% | 1021.4 hPa | 0 mm | - | 108 W/m² | - |
| 1777132321 | 7.78° C | 76% | 1021.4 hPa | 0 mm | - | 117 W/m² | - |
| 1777132018 | 8.33° C | 75% | 1021.5 hPa | 0 mm | - | 126 W/m² | - |
| 1777131717 | 8.33° C | 72% | 1021.5 hPa | 0 mm | - | 163 W/m² | - |
| 1777131416 | 8.33° C | 72% | 1021.7 hPa | 0 mm | - | 185 W/m² | - |
| 1777131115 | 8.33° C | 72% | 1021.5 hPa | 0 mm | - | 160 W/m² | - |
| 1777130811 | 8.33° C | 73% | 1021.5 hPa | 0 mm | - | 164 W/m² | - |
| 1777130507 | 8.33° C | 71% | 1021.2 hPa | 0 mm | - | 199 W/m² | - |
| 1777130203 | 8.33° C | 71% | 1021.4 hPa | 0 mm | - | 209 W/m² | - |
| 1777129899 | 8.33° C | 73% | 1021.1 hPa | 0 mm | - | 210 W/m² | - |
| 1777129594 | 8.33° C | 72% | 1020.9 hPa | 0 mm | - | 221 W/m² | - |
| 1777129294 | 8.33° C | 73% | 1021 hPa | 0 mm | - | 207 W/m² | - |
| 1777128990 | 8.33° C | 72% | 1021.2 hPa | 0 mm | - | 172 W/m² | - |
| 1777128686 | 8.33° C | 74% | 1021.2 hPa | 0 mm | - | 155 W/m² | - |
| 1777128384 | 8.33° C | 74% | 1021.2 hPa | 0 mm | - | 152 W/m² | - |
* Rain latest hour (hover to see other rain measurements)
** Current wind speed in m/s (hover to see current wind gust speed)